This is the latest recevied weather packets stored in our database for station/object KD4MBW. If no packets are shown the sender has not sent any weather packets the latest 1 day(s).
| Time | Temp. | Humidity | Pressure | Rain* | Wind** | Luminosity | Snow |
|---|---|---|---|---|---|---|---|
| 1777989809 | 21.67° C | 71% | 1016.5 hPa | 0 mm | 0.89 m/s, 337° | 488 W/m² | - |
| 1777989506 | 21.67° C | 72% | 1016.4 hPa | 0 mm | 1.34 m/s, 46° | 468 W/m² | - |
| 1777989202 | 21.11° C | 75% | 1016.5 hPa | 0 mm | 0.89 m/s, 253° | 461 W/m² | - |
| 1777988898 | 20.56° C | 78% | 1016.6 hPa | 0 mm | 0.89 m/s, 75° | 367 W/m² | - |
| 1777988595 | 20° C | 80% | 1016.4 hPa | 0 mm | 0.89 m/s, 104° | 424 W/m² | - |
| 1777988292 | 20° C | 80% | 1016.2 hPa | 0 mm | 2.68 m/s, 73° | 382 W/m² | - |
| 1777987989 | 19.44° C | 82% | 1016.2 hPa | 0 mm | 1.79 m/s, 78° | 353 W/m² | - |
| 1777987684 | 19.44° C | 82% | 1016.5 hPa | 0 mm | 1.34 m/s, 107° | 266 W/m² | - |
| 1777987382 | 18.89° C | 83% | 1016.4 hPa | 0 mm | 1.79 m/s, 97° | 249 W/m² | - |
| 1777987079 | 18.33° C | 84% | 1016.4 hPa | 0 mm | 0.89 m/s, 88° | 273 W/m² | - |
| 1777986776 | 18.33° C | 84% | 1016.4 hPa | 0 mm | 1.34 m/s, 6° | 182 W/m² | - |
| 1777986474 | 18.33° C | 85% | 1016.3 hPa | 0 mm | 0 m/s | 193 W/m² | - |
| 1777986172 | 18.33° C | 84% | 1016.4 hPa | 0 mm | 0.45 m/s, 77° | 201 W/m² | - |
| 1777985869 | 17.78° C | 86% | 1016.4 hPa | 0 mm | 0.45 m/s, 272° | 257 W/m² | - |
| 1777985566 | 17.22° C | 86% | 1016.3 hPa | 0 mm | 1.34 m/s, 27° | 211 W/m² | - |
| 1777985262 | 16.67° C | 86% | 1016.3 hPa | 0 mm | 0.45 m/s, 254° | 193 W/m² | - |
| 1777984959 | 17.22° C | 86% | 1016.6 hPa | 0 mm | 1.34 m/s, 192° | 202 W/m² | - |
| 1777984655 | 16.67° C | 86% | 1016.4 hPa | 0 mm | 0.89 m/s, 140° | 229 W/m² | - |
| 1777984352 | 16.67° C | 87% | 1016.3 hPa | 0 mm | 0.89 m/s, 302° | 181 W/m² | - |
| 1777984048 | 16.11° C | 88% | 1016.3 hPa | 0 mm | 1.34 m/s, 72° | 127 W/m² | - |
| 1777983746 | 16.11° C | 88% | 1016.3 hPa | 0 mm | 0.45 m/s, 330° | 153 W/m² | - |
| 1777983442 | 15.56° C | 89% | 1016 hPa | 0 mm | 0.45 m/s, 359° | 140 W/m² | - |
| 1777983139 | 15.56° C | 89% | 1016.6 hPa | 0 mm | 1.34 m/s, 37° | 108 W/m² | - |
| 1777982835 | 15.56° C | 89% | 1016.2 hPa | 0 mm | 1.79 m/s, 92° | 106 W/m² | - |
| 1777982532 | 15° C | 90% | 1016.4 hPa | 0 mm | 0.45 m/s, 7° | 91 W/m² | - |
* Rain latest hour (hover to see other rain measurements)
** Current wind speed in m/s (hover to see current wind gust speed)